EW2295 Weather Reports


time (UTC)temp
F
wind
direction
speed
knots
gust
knots
rain 1hr
in
rain 24hr
in
rain mn
in
humidity
%
barometer
mb
20260506003052 51 0 0.0 3.5 0.05 0.39 0.15 96 1006.8
20260506002541 51 0 0.0 3.5 0.06 0.39 0.15 96 1006.9
20260506002042 51 0 0.0 3.5 0.05 0.38 0.14 96 1006.9
20260506001554 51 0 0.0 4.3 0.05 0.37 0.14 96 1007.0
20260506001044 51 0 0.0 4.3 0.06 0.37 0.14 96 1007.0
20260506000542 51 0 0.0 5.2 0.05 0.37 0.13 96 1007.0
20260506000050 51 0 0.0 5.2 0.05 0.36 0.12 96 1007.0
20260505235541 51 0 0.0 3.5 0.06 0.36 0.12 96 1007.0
20260505235045 51 0 0.0 3.5 0.05 0.35 0.11 96 1007.1
20260505234606 51 0 0.0 0.9 0.06 0.35 0.11 96 1007.3
20260505234047 51 0 0.0 0.9 0.06 0.34 0.11 96 1007.4
20260505233547 51 0 0.0 2.6 0.05 0.33 0.10 96 1007.3
20260505233048 51 0 0.0 2.6 0.06 0.33 0.10 96 1007.3
20260505232547 51 0 0.0 0.0 0.06 0.33 0.09 96 1007.4
20260505232047 51 0 0.0 3.5 0.06 0.32 0.08 96 1007.4
20260505231605 51 0 0.0 3.5 0.07 0.32 0.08 96 1007.5
20260505231045 51 0 0.0 3.5 0.06 0.31 0.07 96 1007.4
20260505230545 51 0 0.0 1.7 0.07 0.31 0.07 96 1007.5
20260505230054 51 0 0.0 0.0 0.07 0.30 0.07 96 1007.5
20260505225547 51 0 0.0 0.0 0.06 0.29 0.06 96 1007.6
20260505225047 51 0 0.0 0.9 0.07 0.29 0.06 96 1007.6
20260505224551 51 0 0.0 0.9 0.06 0.29 0.05 96 1007.7
20260505224050 51 0 0.0 0.0 0.06 0.28 0.04 96 1007.6
20260505223546 51 0 0.0 0.0 0.06 0.27 0.03 96 1007.7
20260505223103 51 0 0.0 0.0 0.07 0.27 0.03 96 1007.7
20260505222548 51 0 0.0 3.5 0.06 0.26 0.03 96 1007.7
20260505222051 51 0 0.0 3.5 0.06 0.25 0.02 96 1007.7
20260505221558 51 0 0.0 0.0 0.05 0.25 0.01 96 1007.8
20260505221048 51 0 0.0 0.9 0.06 0.25 0.01 96 1007.8
20260505220546 51 0 0.0 0.9 0.05 0.24 0.00 96 1007.8
20260505220054 51 0 0.0 0.0 0.05 0.23 0.00 96 1007.8
20260505215547 51 0 0.0 0.0 0.05 0.24 0.23 96 1007.8
20260505215047 51 0 0.0 0.0 0.05 0.23 0.22 96 1007.9
20260505214612 51 0 0.0 0.0 0.05 0.23 0.22 96 1007.9
20260505214046 51 0 0.0 0.0 0.04 0.22 0.22 96 1008.1
20260505213545 51 0 0.0 0.9 0.04 0.22 0.21 96 1008.0
20260505213057 51 0 0.0 0.9 0.03 0.21 0.20 96 1008.0
20260505212545 51 0 0.0 0.9 0.03 0.20 0.19 96 1008.1
20260505212048 51 0 0.0 0.0 0.03 0.20 0.19 96 1008.2
20260505211551 51 0 0.0 0.0 0.03 0.19 0.18 96 1008.1
20260505211047 51 0 0.0 0.0 0.04 0.19 0.18 96 1008.2
20260505210546 51 0 0.0 0.0 0.03 0.18 0.18 96 1008.1
20260505210050 51 0 0.0 5.2 0.03 0.18 0.18 96 1008.3
20260505205547 51 0 0.0 5.2 0.04 0.18 0.18 96 1008.3
20260505205048 51 0 0.0 2.6 0.03 0.18 0.17 96 1008.3
20260505204549 51 0 0.0 2.6 0.03 0.18 0.17 96 1008.3
20260505204046 51 0 0.0 2.6 0.04 0.18 0.17 96 1008.3
20260505203546 51 0 0.0 1.7 0.03 0.17 0.16 96 1008.3
20260505203054 51 0 0.0 1.7 0.03 0.17 0.16 96 1008.3
20260505202542 51 0 0.0 0.0 0.03 0.16 0.15 96 1008.5
20260505202045 51 0 0.0 1.7 0.03 0.16 0.15 96 1008.3
20260505201557 51 0 0.0 1.7 0.03 0.15 0.14 96 1008.3
20260505201045 51 0 0.0 1.7 0.03 0.14 0.14 96 1008.4
20260505200545 51 0 0.0 0.9 0.03 0.14 0.14 96 1008.2
20260505195541 51 0 0.0 5.2 0.03 0.14 0.13 95 1008.3
20260505195044 51 0 0.0 5.2 0.03 0.14 0.13 95 1008.4
20260505194555 51 0 0.0 0.9 0.03 0.14 0.13 95 1008.3
20260505194045 51 0 0.0 0.9 0.03 0.13 0.12 95 1008.3
20260505193545 51 0 0.0 0.9 0.03 0.13 0.12 95 1008.4
20260505193050 51 0 0.0 2.6 0.03 0.13 0.12 95 1008.4
20260505192546 52 0 0.0 2.6 0.02 0.12 0.11 95 1008.4
20260505192044 52 0 0.0 2.6 0.02 0.12 0.11 95 1008.3
20260505191554 52 0 0.0 1.7 0.02 0.12 0.11 95 1008.4
20260505191044 52 0 0.0 0.9 0.01 0.11 0.11 95 1008.4
20260505190545 52 0 0.0 2.6 0.01 0.11 0.11 95 1008.4
20260505190051 52 0 0.0 2.6 0.00 0.11 0.10 95 1008.4
20260505185547 52 0 0.0 1.7 0.00 0.11 0.10 95 1008.3
20260505185042 52 0 0.0 2.6 0.00 0.11 0.09 95 1008.3
20260505184554 52 0 0.0 4.3 0.00 0.11 0.09 95 1008.3
20260505184042 52 0 0.0 4.3 0.00 0.11 0.09 95 1008.4
20260505183544 52 0 0.0 4.3 0.00 0.11 0.09 95 1008.5
20260505183103 52 0 0.0 4.3 0.00 0.11 0.09 95 1008.3
20260505182544 52 0 0.0 3.5 0.00 0.11 0.09 95 1008.3
20260505182044 52 0 0.0 0.0 0.00 0.11 0.09 95 1008.3
20260505181552 52 0 0.0 3.5 0.00 0.11 0.09 95 1008.4
20260505181046 52 0 0.0 3.5 0.00 0.11 0.09 95 1008.4
20260505180544 52 0 0.0 3.5 0.00 0.11 0.09 95 1008.5
20260505180053 52 0 0.0 2.6 0.00 0.11 0.09 95 1008.5
20260505175541 52 0 0.0 2.6 0.00 0.14 0.09 95 1008.5
20260505175045 52 0 0.0 2.6 0.00 0.14 0.09 95 1008.5
20260505174557 52 0 0.0 3.5 0.00 0.14 0.09 95 1008.4
20260505174042 52 0 0.0 3.5 0.00 0.14 0.09 95 1008.6
20260505173541 52 0 0.0 2.6 0.00 0.14 0.09 95 1008.5
20260505173054 52 0 0.0 2.6 0.00 0.14 0.09 95 1008.6
20260505172545 52 0 0.0 0.0 0.00 0.14 0.09 95 1008.6
20260505172048 52 0 0.0 0.0 0.00 0.14 0.09 95 1008.6
20260505171551 52 0 0.0 3.5 0.00 0.14 0.09 95 1008.5
20260505171046 52 0 0.0 3.5 0.00 0.14 0.09 95 1008.6
20260505170547 52 337 0.0 3.5 0.00 0.14 0.09 96 1008.7
20260505170050 52 0 0.0 0.0 0.00 0.14 0.09 95 1008.6
20260505165547 52 0 0.0 2.6 0.00 0.15 0.09 95 1008.7
20260505165048 52 0 0.0 2.6 0.00 0.15 0.09 95 1008.7
20260505164551 52 0 0.0 2.6 0.00 0.15 0.09 95 1008.8
20260505164047 52 0 0.0 3.5 0.00 0.15 0.09 95 1008.8
20260505163547 52 0 0.0 3.5 0.00 0.15 0.09 95 1008.9
20260505163055 52 0 0.0 0.0 0.00 0.15 0.09 95 1008.9
20260505162545 52 0 0.0 5.2 0.00 0.15 0.09 95 1008.9
20260505162046 52 0 0.0 5.2 0.00 0.15 0.09 95 1008.8
20260505161600 52 0 0.0 5.2 0.00 0.15 0.09 96 1008.8
20260505161046 52 0 0.0 2.6 0.00 0.15 0.09 95 1008.9
20260505160547 52 0 0.0 4.3 0.00 0.15 0.09 95 1008.8
20260505153101 53 0 0.0 4.3 0.00 0.16 0.09 95 1009.1
20260505152546 53 0 0.0 4.3 0.00 0.16 0.09 95 1009.1
20260505152045 53 0 0.0 3.5 0.00 0.16 0.09 95 1009.2
20260505151604 53 0 0.0 3.5 0.00 0.16 0.09 96 1009.3
20260505151044 53 0 0.0 3.5 0.00 0.16 0.09 96 1009.2
20260505150544 53 0 0.0 3.5 0.00 0.16 0.09 96 1009.3
20260505140547 53 0 0.9 7.0 0.00 0.16 0.09 96 1009.5
20260505140111 53 0 0.0 0.0 0.00 0.16 0.09 96 1009.5
20260505124607 54 0 0.0 2.6 0.00 0.16 0.09 96 1009.9
20260505124047 54 0 0.0 2.6 0.00 0.16 0.09 95 1010.0
20260505123546 54 0 0.0 0.0 0.00 0.16 0.09 96 1009.9
20260505123054 54 0 0.0 4.3 0.00 0.16 0.09 96 1009.9
20260505122547 55 0 0.0 4.3 0.00 0.16 0.09 96 1009.9
20260505122044 55 332 0.0 4.3 0.00 0.16 0.09 95 1009.9
20260505121557 55 0 0.0 4.3 0.00 0.16 0.09 96 1009.9
20260505121044 55 0 0.0 2.6 0.00 0.16 0.09 96 1009.9
20260505120546 55 0 0.0 2.6 0.00 0.16 0.09 96 1009.9
20260505120057 55 0 0.0 2.6 0.00 0.16 0.09 96 1009.9
20260505115545 55 0 0.0 0.9 0.00 0.16 0.09 96 1009.9
20260505115048 55 0 0.0 0.9 0.00 0.16 0.09 96 1010.0
20260505114559 55 0 0.0 0.0 0.00 0.16 0.09 96 1010.0
20260505114047 55 0 0.0 0.9 0.01 0.16 0.09 95 1010.0
20260505113547 55 0 0.0 1.7 0.01 0.16 0.09 96 1010.0
20260505113100 55 0 0.0 1.7 0.02 0.16 0.09 96 1010.0
20260505112546 55 0 0.0 5.2 0.03 0.16 0.09 96 1010.1
20260505112047 55 0 0.0 5.2 0.03 0.16 0.09 95 1010.1
20260505111553 55 0 0.0 5.2 0.03 0.16 0.09 95 1010.0
20260505111048 55 0 0.0 4.3 0.03 0.16 0.09 95 1010.0
20260505110545 55 0 0.0 4.3 0.03 0.16 0.09 95 1010.1
20260505102045 55 0 0.0 4.3 0.03 0.12 0.05 95 1010.5
20260505101554 55 337 0.0 3.5 0.03 0.12 0.05 95 1010.4
20260505101044 55 0 0.0 3.5 0.04 0.12 0.05 95 1010.4
20260505100544 55 0 0.0 3.5 0.04 0.12 0.05 95 1010.4
20260505100049 55 0 0.0 3.5 0.04 0.12 0.05 95 1010.5
20260505095544 55 0 0.0 2.6 0.04 0.12 0.05 95 1010.5
20260505095047 55 0 0.0 1.7 0.04 0.12 0.05 95 1010.4
20260505094551 55 0 0.0 4.3 0.04 0.12 0.05 95 1010.4
20260505094044 55 0 0.0 4.3 0.03 0.11 0.03 95 1010.4
20260505093544 56 0 0.0 3.5 0.02 0.10 0.03 94 1010.4
20260505093058 56 0 0.0 3.5 0.02 0.10 0.03 95 1010.4
20260505092547 56 0 0.0 3.5 0.00 0.08 0.01 95 1010.4
20260505092046 56 0 0.0 3.5 0.00 0.08 0.01 95 1010.5
20260505091601 56 0 0.0 0.9 0.00 0.07 0.00 95 1010.5
20260505091046 56 0 0.0 3.5 0.00 0.07 0.00 94 1010.4
20260505090545 56 0 0.0 3.5 0.00 0.07 0.00 95 1010.5
20260505090052 57 0 0.0 0.9 0.00 0.07 0.00 95 1010.5
20260505085546 57 0 0.0 0.0 0.00 0.07 0.00 95 1010.5
20260505085047 57 0 0.0 0.0 0.00 0.07 0.00 95 1010.4
20260505084552 57 0 0.0 0.0 0.00 0.07 0.00 95 1010.5
20260505084049 57 0 0.0 0.0 0.00 0.07 0.00 95 1010.6
20260505083544 57 0 0.0 0.0 0.00 0.07 0.00 95 1010.5
20260505083056 56 0 0.0 0.0 0.00 0.07 0.00 95 1010.5
20260505082544 57 0 0.0 0.0 0.00 0.07 0.00 95 1010.5
20260505082044 57 0 0.0 0.0 0.00 0.07 0.00 95 1010.4
20260505081604 57 0 0.0 0.0 0.00 0.07 0.00 95 1010.4
20260505081046 57 0 0.0 0.0 0.00 0.07 0.00 95 1010.4
20260505080545 57 0 0.0 0.0 0.00 0.07 0.00 96 1010.5
20260505080050 57 0 0.0 0.0 0.00 0.07 0.00 96 1010.6
20260505075545 57 0 0.0 0.0 0.00 0.07 0.00 96 1010.6
20260505075045 56 0 0.0 0.0 0.00 0.07 0.00 96 1010.6
20260505074556 56 0 0.0 0.0 0.00 0.07 0.00 96 1010.5
20260505074045 57 0 0.0 0.0 0.00 0.07 0.00 96 1010.5
20260505073542 56 0 0.0 0.0 0.00 0.07 0.00 96 1010.6
20260505073122 56 0 0.0 0.0 0.00 0.07 0.00 96 1010.6
20260505072548 56 0 0.0 0.0 0.00 0.07 0.00 96 1010.5
20260505072046 56 0 0.0 0.0 0.00 0.07 0.00 96 1010.6
20260505071600 56 0 0.0 0.0 0.00 0.07 0.00 96 1010.7
20260505071045 56 0 0.0 0.0 0.00 0.07 0.00 96 1010.7
20260505070547 56 0 0.0 0.0 0.00 0.07 0.00 96 1010.8
20260505070101 56 0 0.0 0.0 0.00 0.07 0.00 96 1010.7
20260505065547 56 0 0.0 0.0 0.00 0.07 0.00 96 1010.9
20260505065044 56 0 0.0 0.0 0.00 0.07 0.00 96 1010.8
20260505064553 56 0 0.0 0.0 0.00 0.07 0.00 96 1010.7
20260505064047 56 0 0.0 0.0 0.00 0.07 0.00 96 1010.8
20260505063545 55 0 0.0 0.0 0.00 0.07 0.00 96 1010.8
20260505063050 56 0 0.0 0.0 0.00 0.07 0.00 96 1010.9
20260505062546 56 0 0.0 0.0 0.00 0.07 0.00 96 1010.9
20260505062051 56 0 0.0 0.0 0.00 0.07 0.00 96 1010.9
20260505061554 56 0 0.0 0.0 0.00 0.07 0.00 96 1010.8
20260505061045 56 0 0.0 0.0 0.00 0.07 0.00 96 1010.9
20260505060545 56 0 0.0 0.0 0.00 0.07 0.00 96 1011.0
20260505060057 56 0 0.0 0.0 0.00 0.07 0.00 96 1011.0
20260505055548 56 0 0.0 0.0 0.00 0.07 0.00 96 1010.9
20260505055045 56 0 0.0 0.0 0.00 0.07 0.00 96 1011.0
20260505054554 55 0 0.0 0.0 0.00 0.07 0.00 96 1011.0
20260505054044 56 0 0.0 0.0 0.00 0.07 0.00 96 1010.9
20260505053547 56 0 0.0 0.0 0.00 0.07 0.00 96 1011.0
20260505053052 56 0 0.0 0.0 0.00 0.07 0.00 96 1011.0
20260505052544 56 0 0.0 0.0 0.00 0.07 0.00 96 1011.0
20260505052046 55 0 0.0 0.0 0.00 0.07 0.00 96 1011.0
20260505051602 55 0 0.0 0.0 0.00 0.07 0.00 96 1011.0
20260505051045 55 0 0.0 0.0 0.00 0.07 0.00 96 1011.0
20260505050548 56 0 0.0 0.0 0.00 0.07 0.00 96 1011.0
20260505050107 56 0 0.0 0.0 0.00 0.07 0.00 96 1010.9
20260505041559 55 0 0.0 0.0 0.00 0.07 0.00 96 1011.0
20260505041045 55 0 0.0 0.0 0.00 0.07 0.00 96 1011.0
20260505040544 55 0 0.0 0.0 0.00 0.07 0.00 96 1011.0
20260505040057 55 0 0.0 0.0 0.00 0.07 0.00 96 1011.1
20260505035544 55 0 0.0 0.0 0.00 0.07 0.00 96 1011.1
20260505035045 55 0 0.0 0.0 0.00 0.07 0.00 96 1011.1
20260505034552 55 0 0.0 0.0 0.00 0.07 0.00 96 1011.0
20260505034045 55 0 0.0 0.0 0.00 0.07 0.00 96 1011.1
20260505033545 55 0 0.0 0.0 0.00 0.07 0.00 96 1011.2
20260505033054 55 0 0.0 0.0 0.00 0.07 0.00 96 1011.3
20260505032544 55 0 0.0 0.0 0.00 0.07 0.00 96 1011.3
20260505032050 55 0 0.0 0.0 0.00 0.07 0.00 96 1011.3
20260505031554 55 0 0.0 0.0 0.00 0.07 0.00 96 1011.3
20260505031045 55 0 0.0 0.0 0.00 0.07 0.00 96 1011.3
20260505030547 55 0 0.0 0.0 0.00 0.07 0.00 96 1011.4
20260505030052 55 0 0.0 0.0 0.00 0.07 0.00 96 1011.4
20260505025546 55 0 0.0 0.0 0.00 0.07 0.00 96 1011.5
20260505025045 55 0 0.0 0.0 0.00 0.07 0.00 96 1011.4
20260505024600 55 0 0.0 0.0 0.00 0.07 0.00 96 1011.3
20260505024045 56 0 0.0 0.0 0.00 0.07 0.00 96 1011.4
20260505023546 55 0 0.0 0.0 0.00 0.07 0.00 96 1011.4
20260505023054 55 0 0.0 0.0 0.00 0.07 0.00 96 1011.5
20260505022545 55 0 0.0 0.0 0.00 0.07 0.00 96 1011.6
20260505022045 55 0 0.0 0.0 0.00 0.07 0.00 96 1011.6
20260505021552 55 0 0.0 0.0 0.00 0.07 0.00 96 1011.6
20260505021045 55 0 0.0 0.0 0.00 0.07 0.00 96 1011.7
20260505020611 55 0 0.0 0.0 0.00 0.07 0.00 96 1011.8
20260505020052 55 0 0.0 0.0 0.00 0.07 0.00 96 1011.7
20260505015545 55 0 0.0 0.0 0.00 0.07 0.00 96 1011.6
20260505015045 55 0 0.0 0.0 0.00 0.07 0.00 96 1011.8
20260505014551 55 0 0.0 0.0 0.00 0.07 0.00 96 1011.8
20260505014046 55 0 0.0 0.0 0.00 0.07 0.00 96 1011.8
20260505013544 55 0 0.0 0.0 0.00 0.07 0.00 96 1011.7
20260505013111 55 0 0.0 0.0 0.00 0.07 0.00 96 1011.8
20260505012549 56 0 0.0 0.0 0.00 0.07 0.00 96 1011.8
20260505012045 55 0 0.0 0.0 0.00 0.07 0.00 95 1011.9
20260505011554 55 0 0.0 0.0 0.00 0.07 0.00 95 1011.9
20260505011043 55 0 0.0 0.0 0.00 0.07 0.00 95 1012.0
20260505010544 56 0 0.0 0.0 0.00 0.07 0.00 95 1012.1
20260505005546 56 0 0.0 0.0 0.00 0.07 0.00 96 1012.2
20260505005044 56 0 0.0 0.0 0.00 0.07 0.00 96 1012.2
20260505004552 56 0 0.0 0.0 0.00 0.07 0.00 96 1012.3
20260505004044 56 0 0.0 0.0 0.00 0.07 0.00 96 1012.3
20260505003548 56 0 0.0 0.0 0.00 0.07 0.00 95 1012.2